Flag for U.S.A. Weather past 2 weeks in Syracuse, New York, U.S.A.

Now
59 °F

Fog.


Feels Like: 58 °F
Forecast: 58 / 73 °F
Wind: 7 mph from East

Location: Syracuse Hancock International Airport

Current Time: Oct 1, 2014 at 5:22:21 AM

Latest Report: Oct 1, 2014 at 4:54 AM


Visibility: 6 mi

Pressure: 29.99 "Hg

Humidity: 93%

Dew point: 57 °F

Location of SyracuseLocation

Historic Weather in Syracuse — Graph

°F

Syracuse temperature yesterday

Maximum temperature yesterday: 77 °F (at 2:54 PM)
Minimum temperature yesterday: 53 °F (at 6:54 AM)
Average temperature yesterday: 65 °F

Past Weeks' High & Low Weather Summary

 TemperatureHumidityPressure
High80 °F (Sep 28, 1:54 PM)96% (Sep 30, 6:54 AM)30.55 "Hg (Sep 30, 6:54 AM)
Low38 °F (Sep 19, 5:54 AM)41% (Sep 17, 3:54 PM)29.54 "Hg (Sep 21, 3:54 PM)
Average61 °F74%30.11 "Hg
* Reported Sep 16 3:54 AM — Oct 1 3:54 AM, Syracuse, Weather by CustomWeather, © 2014

Note: Actual official high and low records may vary slightly from our data, if they occured in-between our weather recording intervals... More about our weather records

Advertising

Syracuse weather history for previous 24 hours

 ConditionsComfort  
Time TempWeatherWind HumidityBarometerVisibility
3:54 AM
Oct 1
59 °FFog.3 mph90%29.98 "Hg5 mi
2:54 AM59 °FFog.3 mph90%29.97 "Hg6 mi
1:54 AM59 °FPartly cloudy.6 mph93%29.97 "Hg8 mi
12:54 AM61 °FPassing clouds.5 mph90%29.96 "Hg10 mi
11:54 PM
Sep 30
64 °FMostly cloudy.3 mph84%29.95 "Hg10 mi
10:54 PM65 °FOvercast.6 mph85%29.95 "Hg10 mi
9:54 PM66 °FMostly cloudy.3 mph87%29.94 "Hg10 mi
8:54 PM68 °FThunderstorms. Overcast.6 mph82%29.94 "Hg10 mi
7:54 PM68 °FOvercast.5 mph76%29.91 "Hg10 mi
6:54 PM69 °FBroken clouds.7 mph73%29.89 "Hg10 mi
5:54 PM72 °FPartly sunny.7 mph71%29.87 "Hg10 mi
4:54 PM74 °FPartly sunny.12 mph67%29.85 "Hg10 mi
3:54 PM75 °FScattered clouds.8 mph64%29.86 "Hg10 mi
2:54 PM77 °FBroken clouds.9 mph60%29.85 "Hg10 mi
1:54 PM75 °FBroken clouds.9 mph64%29.86 "Hg10 mi
12:54 PM76 °FScattered clouds.5 mph60%29.88 "Hg10 mi
11:54 AM74 °FScattered clouds.No wind62%29.88 "Hg10 mi
10:54 AM69 °FScattered clouds.3 mph73%29.89 "Hg10 mi
9:54 AM64 °FScattered clouds.No wind81%29.90 "Hg10 mi
8:54 AM59 °FBroken clouds.8 mph90%29.90 "Hg10 mi
7:54 AM56 °FPartly cloudy.3 mph93%29.90 "Hg7 mi
6:54 AM53 °FPassing clouds.No wind96%29.89 "Hg8 mi
5:54 AM55 °FPassing clouds.3 mph93%29.87 "Hg9 mi
Weather by CustomWeather, © 2014

See weather overviewHow to use our weather pages